{"data":{"norad_id":59586,"intl_designator":"2024-076Y","name":"STARLINK-31704","alt_names":[],"object_type":"PAYLOAD","status":"ACTIVE","operator":null,"country":"US","launch_date":"2024-04-23","launch_site_code":"AFETR","launch_vehicle":null,"mission":null,"orbit_class":"UNKNOWN","rcs_meters":null,"size_class":null,"mass_kg":null,"dimensions":null,"purposes":["comms"],"wikipedia_slug":null,"has_3d_model":false,"image_url":null,"decayed_at":null,"tle_current":{"epoch":"2026-05-24T16:52:54.516864Z","epoch_age_seconds":107552,"freshness":"FRESH","line1":"1 59586U 24076Y   26144.70340876  .00077736  00000+0  16641-2 0  9993","line2":"2 59586  42.9913 248.5642 0018027   2.9406 357.1555 15.43682795118701","mean_motion":15.43682795,"eccentricity":0.0018027,"inclination_deg":42.9913,"raan_deg":248.5642,"arg_perigee_deg":2.9406,"mean_anomaly_deg":357.1555,"bstar":0.0016641,"rev_number":11870,"period_min":93.283413189819,"perigee_km":422.96867531757,"apogee_km":447.53366502631,"semimajor_km":6813.3881701719,"source":"CELESTRAK","updated_at":"2026-05-25T13:38:18.989387Z"}}}